Regional Weather Roundup
Issued by NWS Jackson, KY

Home | Current Version | Previous Version | Graphics & Text | Print | Product List | Glossary On
Versions: 1 2 3 4 5 6 7 8 9 10 11 12 13 14 15 16 17 18 19 20 21 22 23 24 25 26 27 28 29 30 31 32 33 34 35 36 37 38 39 40 41 42 43 44 45 46 47 48 49 50
000
ASUS43 KJKL 271210
RWRJKL

EAST KENTUCKY HOURLY WEATHER ROUNDUP
NATIONAL WEATHER SERVICE JACKSON KY
800 AM EDT SAT MAY 27 2017

NOTE: "FAIR" INDICATES FEW OR NO CLOUDS BELOW 12,000 FEET WITH
NO SIGNIFICANT WEATHER AND/OR OBSTRUCTIONS TO VISIBILITY.

* THESE REPORTS ARE NOT UNDER NWS QUALITY CONTROL AND MAY NOT
  REPORT WEATHER SUCH AS PRECIPITATION AND FOG.

KYZ079-080-083-085-087-088-110-112-115-119-120-271300
...EASTERN KENTUCKY...

CITY           SKY/WX    TMP DP  RH WIND       PRES   REMARKS
JACKSON        CLOUDY    71  61  70 CALM      29.93R
6HR MIN TEMP:  67; 6HR MAX TEMP:  71;

LONDON         CLOUDY    72  59  63 SW8       29.94R
6HR MIN TEMP:  68; 6HR MAX TEMP:  72;

SOMERSET*      CLOUDY    68  59  73 S3        29.95R
MONTICELLO*    CLOUDY    72  64  76 W9        29.96R
6HR MIN TEMP:  71; 6HR MAX TEMP:  73;

WILLIAMSBURG*  PTSUNNY   72  63  73 SW5       29.95R
MIDDLESBORO*   CLOUDY    65  64  94 CALM      29.97S
6HR MIN TEMP:  63; 6HR MAX TEMP:  68;

HARLAN APT*    CLOUDY    63  59  88 CALM      29.98R
PIKE CO APT*   CLOUDY    71  61  70 SW6       29.94R
BIG SANDY APT* CLOUDY    71  61  70 SW3       29.93R
6HR MIN TEMP:  67; 6HR MAX TEMP:  71;

MOREHEAD APT*  CLOUDY    70  61  73 SW9       29.91S
ASHLAND*       CLOUDY    66  63  88 CALM      29.86R
$$

KYZ035-036-041-042-044-050-067-078-099-271300
...CENTRAL KENTUCKY...

CITY           SKY/WX    TMP DP  RH WIND       PRES   REMARKS
MT STERLING*   CLOUDY    70  63  78 W3        29.91S
FLEMING/MASON* CLOUDY    68  64  88 SW6       29.90R
DANVILLE*      CLOUDY    70  61  73 SW7       29.93R
LEXINGTON      CLOUDY    71  62  73 SW8       29.90R
6HR MIN TEMP:  69; 6HR MAX TEMP:  73; 6HR PCP: TRACE;

FRANKFORT      CLOUDY    71  63  75 SW5       29.88R
6HR MIN TEMP:  69; 6HR MAX TEMP:  73; 6HR PCP: TRACE;

LOUISVILLE     CLOUDY    74  68  81 W7        29.88R
6HR MIN TEMP:  73; 6HR MAX TEMP:  76; 6HR PCP: TRACE;

LEBANON*       CLOUDY    72  63  73 S6        29.91R
GLASGOW*       CLOUDY    72  63  73 SW3       29.93R
BOWLING GREEN  CLOUDY    74  65  73 SW8       29.92R
6HR MIN TEMP:  73; 6HR MAX TEMP:  76;

$$

KYZ091>093-OHZ055-061-077-WVZ005-015-034-035-042-271300
...SOUTHERN OHIO/WEST VIRGINIA...

CITY           SKY/WX    TMP DP  RH WIND       PRES   REMARKS
COVINGTON      PTSUNNY   71  66  84 W5        29.87R
COLUMBUS       CLOUDY    65  63  93 E3        29.85R
DAYTON         CLOUDY    67  65  93 W3        29.86R
WILMINGTON     CLOUDY    69  66  90 SW7       29.85R
HUNTINGTON     CLOUDY    68  60  75 S6        29.88R
CHARLESTON     CLOUDY    65  59  81 W3        29.89R
PINEVILLE*     SUNNY     58  58  97 MISG      30.01S
BECKLEY        PTSUNNY   66  57  72 SW8       29.98S
BLUEFIELD      SUNNY     64  57  78 W9        30.01S
LOGAN CO APT*  CLOUDY    66  59  77 CALM      29.94R
$$

VAZ002-007-008-TNZ017-027-036-066-071-271300
...SOUTHWEST VIRGINIA/EAST TENNESSEE...

CITY           SKY/WX    TMP DP  RH WIND       PRES   REMARKS
WISE*          CLOUDY    64  59  82 SW5G16    30.03S
JONESVILLE*    PTSUNNY   63  61  94 CALM      30.01S
ABINGDON*      CLOUDY    64  61  92 CALM      30.02S
BRISTOL        PTSUNNY   62  58  86 CALM      30.00S
MORRISTOWN*    CLOUDY    68  63  83 CALM      29.98R
SEVIERVILLE*   MOSUNNY   70  61  73 CALM      29.97S
KNOXVILLE      PTSUNNY   70  61  73 W3        29.96S
LAFOLLETTE*    PTSUNNY   64  63  94 CALM      30.00R
OAK RIDGE      PTSUNNY   69  62  78 CALM      29.99R
CROSSVILLE     PTSUNNY   66  60  81 VRB5      30.02R
NASHVILLE      CLOUDY    73  63  70 S8        29.95R
$$

...KEY TO REMARKS...
VSB - VISIBILITY IN MILES
WCI - WIND CHILL INDEX
HX  - HEAT INDEX

$$



USA.gov is the U.S. government's official web portal to all federal, state and local government web resources and services.